| time (UTC) | temp F | wind direction | speed knots | gust knots | rain 1hr in | rain 24hr in | rain mn in | humidity % | barometer mb |
| 20260508060057 | 49 | 136 | 0.0 | 0.9 | 0.00 | 0.00 | 0.00 | ||
| 20260508053038 | 49 | 154 | 0.0 | 0.0 | 0.00 | 0.00 | 0.00 | ||
| 20260508050106 | 49 | 174 | 0.0 | 0.9 | 0.00 | 0.00 | 0.00 | ||
| 20260508043046 | 50 | 231 | 0.0 | 0.0 | 0.00 | 0.00 | 0.00 | ||
| 20260508033032 | 52 | 222 | 0.0 | 2.6 | 0.00 | 0.00 | 0.00 | ||
| 20260508030058 | 53 | 240 | 0.0 | 1.7 | 0.00 | 0.00 | 0.00 | ||
| 20260508023039 | 54 | 213 | 0.0 | 4.3 | 0.00 | 0.00 | 0.00 | ||
| 20260508020110 | 55 | 279 | 0.9 | 4.3 | 0.00 | 0.00 | 0.00 | ||
| 20260508010100 | 57 | 272 | 1.7 | 7.0 | 0.00 | 0.00 | 0.00 | ||
| 20260508003042 | 58 | 250 | 1.7 | 6.1 | 0.00 | 0.00 | 0.00 | ||
| 20260508000052 | 59 | 237 | 1.7 | 6.1 | 0.00 | 0.00 | 0.00 | ||
| 20260507233034 | 61 | 304 | 1.7 | 6.1 | 0.00 | 0.00 | 0.00 | ||
| 20260507230104 | 62 | 260 | 1.7 | 5.2 | 0.00 | 0.00 | 0.00 | ||
| 20260507223042 | 62 | 246 | 3.5 | 7.8 | 0.00 | 0.00 | 0.00 | ||
| 20260507220054 | 64 | 211 | 0.9 | 8.7 | 0.00 | 0.00 | 0.00 | ||
| 20260507210046 | 62 | 218 | 0.9 | 6.1 | 0.00 | 0.00 | 0.00 | ||
| 20260507203050 | 61 | 265 | 1.7 | 6.1 | 0.00 | 0.00 | 0.00 | ||
| 20260507200059 | 61 | 357 | 1.7 | 4.3 | 0.00 | 0.00 | 0.00 | ||
| 20260507193037 | 60 | 244 | 0.0 | 5.2 | 0.00 | 0.00 | 0.00 | ||
| 20260507190100 | 60 | 208 | 1.7 | 6.1 | 0.00 | 0.00 | 0.00 | ||
| 20260507180050 | 58 | 170 | 0.9 | 3.5 | 0.00 | 0.00 | 0.00 | ||
| 20260507173047 | 58 | 253 | 0.9 | 2.6 | 0.00 | 0.00 | 0.00 | ||
| 20260507170057 | 57 | 327 | 0.9 | 5.2 | 0.00 | 0.00 | 0.00 | ||
| 20260507163037 | 57 | 231 | 0.9 | 3.5 | 0.00 | 0.00 | 0.00 | ||
| 20260507160108 | 56 | 190 | 0.0 | 2.6 | 0.00 | 0.00 | 0.00 | ||
| 20260507153046 | 56 | 168 | 0.9 | 3.5 | 0.00 | 0.00 | 0.00 | ||
| 20260507150056 | 59 | 270 | 0.9 | 2.6 | 0.00 | 0.00 | 0.00 | ||
| 20260507140106 | 56 | 285 | 0.0 | 1.7 | 0.00 | 0.00 | 0.00 | ||
| 20260507133044 | 49 | 292 | 0.0 | 0.0 | 0.00 | 0.00 | 0.00 | ||
| 20260507123053 | 49 | 292 | 0.0 | 0.0 | 0.00 | 0.00 | 0.00 | ||
| 20260507113041 | 49 | 251 | 0.0 | 0.9 | 0.00 | 0.00 | 0.00 | ||
| 20260507110051 | 50 | 251 | 0.0 | 0.9 | 0.00 | 0.00 | 0.00 | ||
| 20260507103030 | 50 | 246 | 0.0 | 0.9 | 0.00 | 0.00 | 0.00 | ||
| 20260507093045 | 50 | 268 | 0.0 | 0.9 | 0.00 | 0.00 | 0.00 | ||
| 20260507090057 | 51 | 268 | 0.0 | 0.9 | 0.00 | 0.00 | 0.00 | ||
| 20260507083033 | 51 | 237 | 0.0 | 0.9 | 0.00 | 0.00 | 0.00 | ||
| 20260507073044 | 51 | 226 | 0.0 | 1.7 | 0.00 | 0.00 | 0.00 | ||
| 20260507070056 | 51 | 252 | 0.0 | 0.9 | 0.00 | 0.00 | 0.00 | ||
| 20260507063030 | 51 | 325 | 0.9 | 2.6 | 0.00 | 0.00 | 0.00 |